Current weather by "City, St" or "zip code"  
 

Current Conditions: Sweetwater, Avenger Field Airport, TX

Overcast


47.0 F

Last Updated on Oct 23 2020, 8:55 pm CDT
Humidity: 63%
Wind Speed: N 11.5 mph
Barometer 30.30 in
Dewpoint: 35.1 F
Visibility: 10.00 mi
Precip: --
Heat Index: NA
Wind Chill: 42 F
Current conditions at:

Sweetwater, Avenger Field Airport, TX (KSWW)

Lat: 32.46722 Lon: 100.46639

Local Radar Image active severe weather and emergency alerts image image weather storm and storm spotter reports image weather observation monitoring service image
Local
Radar
Active
Alerts
Storm Reports Obs
Monitoring

Sign-up For Email & Text Message Weather Alert Notification Services



Advertise Here

Observation History for Sweetwater, Avenger Field Airport, TX


Time Wind
(mph)
Vis
(mi)
Weather Precip (in) Temperature (F) Relative
Humidity
Wind
Chill
(F)
Heat
Index
(F)
Pressure
Air Dwpt altimeter
(in)
sea level
(mb)
Rmks
8:55 pm CDT N 11.5 10.00 Overcast -- 47.0 35.1 63% 42 NA 30.30 M
7:55 pm CDT N 10.4 G 18.4 10.00 Overcast -- 48.0 35.2 62% 43 NA 30.29 M
7:35 pm CDT N 10.4 G 17.3 10.00 Overcast -- 48.0 35.1 62% 43 NA 30.28 M
6:55 pm CDT N 11.5 G 19.6 10.00 Overcast -- 47.0 34.5 61% 42 NA 30.28 M
6:35 pm CDT N 12.7 G 18.4 10.00 Overcast -- 48.0 34.7 61% 43 NA 30.28 M
5:55 pm CDT N 15.0 G 20.7 10.00 Overcast -- 47.0 34.2 60% 41 NA 30.27 M
4:55 pm CDT N 15.0 G 20.7 10.00 Overcast -- 47.0 34.0 61% 41 NA 30.27 M
4:35 pm CDT N 16.1 G 24.2 10.00 Overcast -- 47.0 34.0 61% 41 NA 30.27 M
3:55 pm CDT N 17.3 G 23.0 10.00 Overcast -- 47.0 34.0 60% 40 NA 30.27 M
2:55 pm CDT N 17.3 G 23.0 10.00 Overcast -- 47.0 34.9 63% 40 NA 30.28 M
1:55 pm CDT N 15.0 G 25.3 10.00 Overcast -- 45.0 37.2 75% 38 NA 30.29 M
1:35 pm CDT N 17.3 G 25.3 10.00 Overcast -- 45.0 37.4 75% 38 NA 30.29 M
12:55 pm CDT N 17.3 G 24.2 10.00 Overcast -- 45.0 37.8 75% 38 NA 30.30 M
11:55 am CDT N 21.9 G 27.6 10.00 Overcast and Breezy -- 45.0 39.2 79% 37 NA 30.29 M
11:35 am CDT N 16.1 G 27.6 10.00 Overcast -- 46.0 39.2 79% 39 NA 30.28 M
10:55 am CDT N 19.6 G 28.8 10.00 Overcast -- 46.0 39.0 77% 38 NA 30.27 M
9:55 am CDT N 17.3 G 32.2 10.00 Overcast -- 46.0 39.2 76% 39 NA 30.23 M
8:55 am CDT N 16.1 G 29.9 10.00 Overcast -- 48.0 38.8 72% 42 NA 30.18 M
7:55 am CDT N 18.4 G 27.6 10.00 Overcast -- 49.0 39.6 69% 43 NA 30.13 M
6:55 am CDT N 17.3 G 28.8 10.00 Overcast -- 52.0 40.5 65% 47 NA 30.09 M
6:35 am CDT N 19.6 G 28.8 10.00 Overcast -- 54.0 42.1 65% 49 NA 30.08 M
5:55 am CDT N 18.4 G 24.2 10.00 Overcast -- 58.0 46.2 66% 54 NA 30.05 M
5:35 am CDT N 19.6 G 27.6 10.00 Mostly Cloudy -- 59.0 47.3 65% 55 NA 30.03 M
4:55 am CDT S 13.8 10.00 Fair -- 70.0 59.0 68% NA NA 29.93 M

Regional Weather Observation


Sweetwater, Avenger Field Airport, TX (KSWW)

Overcast
47.0 F

Big Spring, Big Spring McMahon-Wrinkle Airport, TX (KBPG)

Overcast
49.0 F

Abilene, Dyess Air Force Base, TX (KDYS)

Overcast
48.0 F

Abilene, Abilene Regional Airport, TX (KABI)

Overcast
48.0 F

San Angelo, Mathis Field, TX (KSJT)

Overcast
49.0 F

Lubbock, Lubbock International Airport, TX (KLBB)

Mostly Cloudy
47.0 F